Weather observations for the past three days for
Ionia County Airport
Imperial (Metric)
Date Time (edt) Wind (mph) Vis. (mi.) Weather Sky Cond. Temperature (ºF) Relative Humidity Wind Chill (°F) Heat Index (°F) Pressure Precipitation (in)
Air Dwpt 6 hour altimeter (in) sea level (mb) 1 hr 3 hr 6 hr
Max. Min.
22 13:35 SW 3 10.00 Mostly Cloudy SCT034 SCT040 BKN065 80.8 63.1 55% 82 30.02 0.0
22 13:15 Calm 10.00 Overcast SCT043 OVC065 79 61 54% 80 30.03 0.0
22 12:55 W 3 10.00 Overcast SCT033 BKN048 OVC055 79.5 63 57% 81 30.04 0.0
22 12:35 Calm 10.00 Mostly Cloudy SCT033 BKN048 BKN055 78.1 62.2 58% 80 30.04 0.0
22 12:15 Calm 10.00 Partly Cloudy SCT060 SCT080 78.4 62.2 58% 80 30.04 0.0
22 11:55 Calm 10.00 Fair CLR 77.9 63.3 61% 80 30.05 0.0
22 11:35 Calm 10.00 Fair CLR 78.1 63.1 60% 80 30.05 0.0
22 11:15 N 3 10.00 Fair CLR 77.9 64.8 64% 80 30.05 0.0
22 10:55 Calm 10.00 Fair CLR 75.6 68.9 80% 76 30.05 0.0
22 10:35 Calm 10.00 Fair CLR 73 72.3 98% 30.05 0.0
22 10:15 Calm 10.00 Fair CLR 70.7 70.7 100% 30.06 0.0
22 09:55 Calm 10.00 Fair CLR 69.1 69.1 100% 30.06 0.0
22 09:35 Calm 10.00 Partly Cloudy SCT004 SCT070 SCT080 68.5 68.5 100% 30.06 0.0
22 09:15 Calm 10.00 Overcast BKN002 BKN070 OVC080 67.3 67.3 100% 30.06 0.0
22 08:55 Calm 5.00 Fog/Mist OVC002 65.8 65.8 100% 30.06 0.0
22 08:35 Calm 4.00 Fog/Mist BKN002 BKN013 OVC017 65.5 65.5 100% 30.06 0.0
22 08:15 Calm 0.25 Fog OVC002 64.8 64.8 100% 30.06 0.0
22 07:55 Calm 0.15 Fog BKN002 OVC017 64.2 64.2 68.9 61.5 100% 30.06 0.0
22 07:35 Calm 0.15 Fog BKN002 OVC017 63.7 63.7 100% 30.05 0.0
22 07:15 Calm 0.15 Fog BKN002 OVC017 63.5 63.5 100% 30.06 0.0
22 06:55 Calm 0.15 Fog BKN002 OVC017 63.5 63.5 100% 30.06 0.0
22 06:35 Calm 0.15 Fog BKN002 OVC019 63.5 63.5 100% 30.06 0.0
22 06:15 Calm 0.25 Fog OVC002 62.8 62.8 100% 30.05 0.0
22 05:55 NE 3 0.15 Fog OVC002 62.6 62.6 100% 30.05 0.0
22 05:35 Calm 0.25 Fog OVC002 62.8 62.8 100% 30.05 0.0
22 05:15 N 3 0.75 Fog/Mist BKN002 BKN007 63.5 63.5 100% 30.05 0.0
22 04:55 Calm 0.50 Fog BKN007 62.2 62.2 100% 30.05 0.0
22 04:35 Calm 5.00 Fog/Mist CLR 63.9 63.9 100% 30.05 0.0
22 04:15 Calm 7.00 Fair CLR 64 64 100% 30.06 0.0
22 03:55 Calm 10.00 Fair CLR 63 63 100% 30.06 0.0
22 03:35 Calm 10.00 Fair CLR 65.8 65.8 100% 30.06 0.0
22 03:15 Calm 10.00 Fair CLR 63.9 63.9 100% 30.06 0.0
22 02:55 N 3 10.00 Fair CLR 64.4 64.4 100% 30.07 0.0
22 02:35 Calm 10.00 Fair CLR 65.5 65.5 100% 30.07 0.0
22 02:15 NW 3 10.00 Fair CLR 68.9 66.9 93% 30.08 0.0
22 01:55 Calm 10.00 Fair CLR 67.1 67.1 79.2 66 100% 30.09 0.0
22 01:35 Calm 10.00 Fair CLR 66.2 66.2 100% 30.08 0.0
22 01:15 Calm 10.00 Fair CLR 66.2 66.2 100% 30.09 0.0
22 00:55 Calm 10.00 Fair CLR 67.1 66.2 97% 30.09 0.0
22 00:35 Calm 10.00 Fair CLR 69.8 64.4 83% 30.09 0.0
22 00:15 Calm 10.00 Fair CLR 70.9 64 79% 30.09 0.0
21 23:55 NW 3 10.00 Fair CLR 69.8 64.4 83% 30.09 0.0
21 23:35 Calm 10.00 Fair CLR 70.9 64.4 80% 30.09 0.0
21 23:15 Calm 10.00 Fair CLR 70.7 64.4 81% 30.09 0.0
21 22:55 W 3 10.00 Fair CLR 72.7 63.5 73% 30.09 0.0
21 22:35 W 3 10.00 Fair CLR 72.9 63.5 73% 30.09 0.0
21 22:15 W 5 10.00 Fair CLR 72.9 63.5 73% 30.09 0.0
21 21:55 W 5 10.00 Partly Cloudy SCT090 73.4 63.3 71% 30.09 0.0
21 21:35 SW 5 10.00 Fair CLR 73.6 63.5 71% 30.08 0.0
21 21:15 W 5 10.00 Fair CLR 75.2 62.2 64% 77 30.07 0.0
21 20:55 SW 3 10.00 Partly Cloudy SCT090 76.3 62.6 63% 78 30.07 0.0
21 20:35 W 5 10.00 Mostly Cloudy BKN090 78.1 62.1 58% 80 30.06 0.0
21 20:15 SW 6 10.00 Partly Cloudy SCT075 SCT090 78.1 62.2 58% 80 30.07 0.0
21 19:55 SW 6 10.00 Mostly Cloudy BKN075 79.5 60.8 83.5 79.5 53% 81 30.07 0.0
21 19:35 SW 6 10.00 Mostly Cloudy BKN070 BKN075 79.9 60.1 51% 81 30.07 0.0
21 19:15 SW 6 10.00 Overcast SCT050 OVC065 80.8 60.1 49% 81 30.07 0.0
21 18:55 SW 5 10.00 Overcast OVC048 80.8 60.8 51% 82 30.07 0.0
21 18:35 SW 6 10.00 Mostly Cloudy BKN050 81.5 59.4 47% 82 30.07 0.0
21 18:15 Calm 10.00 Fair CLR 82 57.7 44% 82 30.07 0.0
21 17:55 W 5 10.00 Fair CLR 82.8 57.9 43% 83 30.07 0.0
21 17:35 Calm 10.00 Fair CLR 81.7 57.7 44% 82 30.07 0.0
21 17:15 Calm 10.00 Fair CLR 82.6 57.7 43% 82 30.08 0.0
21 16:55 Calm 10.00 Partly Cloudy SCT049 81.7 58.1 45% 82 30.09 0.0
21 16:35 W 3 10.00 Mostly Cloudy SCT049 BKN085 83.1 58.3 43% 83 30.09 0.0
21 16:15 Calm 10.00 Overcast OVC085 81.1 57.7 45% 81 30.1 0.0
21 15:55 SW 6 10.00 Overcast SCT055 OVC085 81.5 58.3 45% 82 30.1 0.0
21 15:35 W 6 10.00 Overcast SCT048 OVC055 81 58.3 46% 81 30.11 0.0
21 15:15 SW 3 10.00 Overcast BKN043 OVC050 80.6 57.6 45% 81 30.11 0.0
21 14:55 S 3 10.00 Overcast SCT045 BKN055 OVC085 81 56.8 44% 81 30.11 0.0
21 14:35 S 7 10.00 Mostly Cloudy BKN075 80.6 57.4 45% 81 30.11 0.0
21 14:15 S 6 10.00 Fair CLR 81.7 59.2 46% 82 30.11 0.0
21 13:55 S 5 10.00 Fair CLR 81 59 81.1 64.8 47% 81 30.11 0.0
21 13:35 SW 7 10.00 Fair CLR 80.1 59.2 49% 81 30.11 0.0
21 13:15 SE 3 10.00 Partly Cloudy SCT037 79.7 60.3 52% 81 30.11 0.0
21 12:55 Calm 10.00 Fair CLR 79.7 60.1 51% 81 30.12 0.0
21 12:35 S 5 10.00 Fair CLR 78.4 59 51% 80 30.12 0.0
21 12:15 SW 5 10.00 Fair CLR 78.3 59.4 52% 80 30.12 0.0
21 11:55 Calm 10.00 Fair CLR 77.4 59.4 54% 79 30.12 0.0
21 11:35 S 5 10.00 Fair CLR 77.2 58.1 52% 79 30.12 0.0
21 11:15 Calm 10.00 Partly Cloudy SCT080 75.6 60.8 60% 78 30.12 0.0
21 10:55 Calm 10.00 Partly Cloudy SCT080 74.3 61.2 64% 30.12 0.0
21 10:35 Calm 10.00 Fair CLR 73.4 63 70% 30.12 0.0
21 10:15 Calm 10.00 Fair CLR 72.7 62.4 70% 30.12 0.0
21 09:55 Calm 10.00 Fair CLR 73 62.2 69% 30.12 0.0
21 09:35 Calm 10.00 Fair CLR 72 62.4 72% 30.12 0.0
21 09:15 W 3 10.00 Fair CLR 70.7 62.8 76% 30.12 0.0
21 08:55 Calm 10.00 Fair CLR 68.9 63.5 83% 30.12 0.0
21 08:35 Calm 10.00 Fair CLR 67.8 65.5 92% 30.12 0.0
21 08:15 Calm 10.00 Fair CLR 66 65.7 99% 30.12 0.0
21 07:55 W 3 10.00 Fair CLR 64.6 64.6 64.6 58.5 100% 30.12 0.0
21 07:35 Calm 10.00 Fair CLR 64 64 100% 30.12 0.0
21 07:15 SW 3 7.00 Fair CLR 61.5 61.5 100% 30.11 0.0
21 06:55 Calm 10.00 Fair CLR 61.7 61.7 100% 30.11 0.0
21 06:35 W 3 10.00 Fair CLR 60.8 60.8 100% 30.11 0.0
21 06:15 Calm 5.00 Fog/Mist CLR 58.5 58.5 100% 30.11 0.0
21 05:55 SW 3 10.00 Fair CLR 60.8 60.8 100% 30.1 0.0
21 05:35 W 5 10.00 Fair CLR 60.8 60.8 100% 30.1 0.0
21 05:15 Calm 10.00 Fair CLR 60.8 60.8 100% 30.1 0.0
21 04:55 Calm 10.00 Fair CLR 61 61 100% 30.1 0.0
21 04:35 W 3 10.00 Fair CLR 62.1 62.1 100% 30.1 0.0
21 04:15 Calm 10.00 Fair CLR 62.2 62.2 100% 30.1 0.0
21 03:55 SW 3 10.00 Fair CLR 62.6 62.6 100% 30.1 0.0
21 03:35 W 3 10.00 Fair CLR 63 63 100% 30.1 0.0
21 03:15 W 5 10.00 Fair CLR 62.6 62.6 100% 30.1 0.0
21 02:55 W 5 10.00 Fair CLR 62.8 62.8 100% 30.1 0.0
21 02:35 W 3 10.00 Fair CLR 63.1 62.8 99% 30.1 0.0
21 02:15 Calm 10.00 Partly Cloudy SCT060 64 61.2 90% 30.1 0.0
21 01:55 W 3 10.00 Partly Cloudy SCT060 64.6 61.5 75.6 63.9 90% 30.11 0.0
21 01:35 W 6 10.00 Overcast OVC060 64.8 60.3 85% 30.11 0.0
21 01:15 W 5 10.00 Overcast OVC060 65.7 60.3 83% 30.11 0.0
21 00:55 W 5 10.00 Partly Cloudy SCT060 64.9 59.9 84% 30.1 0.0
21 00:35 W 5 10.00 Fair CLR 66.2 59.5 79% 30.11 0.0
20 23:55 W 6 10.00 Fair CLR 65.3 59.4 81% 30.11 0.0
20 23:35 W 6 10.00 Fair CLR 66.4 59.2 78% 30.11 0.0
20 23:15 SW 6 10.00 Fair CLR 66.6 59.4 78% 30.11 0.0
20 22:55 W 6 10.00 Partly Cloudy SCT065 68 59.4 74% 30.11 0.0
20 22:35 W 7 10.00 Fair CLR 68.4 59.4 73% 30.11 0.0
20 22:15 W 6 10.00 Fair CLR 69.8 59.4 70% 30.1 0.0
20 21:55 W 5 10.00 Fair CLR 69.8 60.3 72% 30.09 0.0
20 21:35 SW 5 10.00 Fair CLR 70.3 59.9 70% 30.09 0.0
20 21:15 W 5 10.00 Fair CLR 72.5 58.8 62% 30.09 0.0
20 20:55 W 6 10.00 Fair CLR 73.4 59 61% 30.09 0.0
20 20:35 W 6 10.00 Fair CLR 74.5 59.4 59% 30.08 0.0
20 20:15 W 3 10.00 Fair CLR 74.8 59.9 60% 30.08 0.0
20 19:55 W 8 10.00 Partly Cloudy SCT050 75.7 59.2 82.2 75.7 57% 78 30.07 0.0
20 19:35 W 8 10.00 Mostly Cloudy BKN050 77 59.2 54% 79 30.07 0.0
20 19:15 W 8 10.00 Partly Cloudy SCT055 77.4 57.7 51% 79 30.08 0.0
20 18:55 W 9 10.00 Fair CLR 79.3 57.6 47% 80 30.07 0.0
20 18:35 W 10 10.00 Fair CLR 80.1 58.3 47% 81 30.07 0.0
20 18:15 W 8 10.00 Fair CLR 80.4 58.3 47% 81 30.07 0.0
20 17:55 SW 9 10.00 Fair CLR 79.2 57.6 48% 80 30.07 0.0
20 17:35 SW 8 10.00 Partly Cloudy SCT049 81.3 55.9 42% 81 30.08 0.0
20 17:15 SW 8 10.00 Partly Cloudy SCT049 81 57.9 45% 81 30.08 0.0
20 16:55 SW 7 10.00 Partly Cloudy SCT047 81.9 56.3 42% 82 30.08 0.0
20 16:35 SW 10 10.00 Partly Cloudy SCT047 SCT055 81.1 57.2 44% 81 30.09 0.0
20 16:15 SW 6 10.00 Partly Cloudy SCT049 80.6 56.8 44% 81 30.09 0.0
20 15:55 W 7 10.00 Partly Cloudy SCT070 81.3 56.7 43% 81 30.09 0.0
20 15:35 W 3 10.00 Partly Cloudy SCT070 81 55.6 42% 81 30.09 0.0
20 15:15 W 8 10.00 Fair CLR 80.8 56.7 44% 81 30.1 0.0
20 14:55 W 6 10.00 Partly Cloudy SCT050 80.2 56.5 44% 80 30.11 0.0
20 14:35 W 10 10.00 Partly Cloudy SCT047 SCT065 81 56.7 43% 81 30.11 0.0
20 14:15 W 9 10.00 Mostly Cloudy SCT047 SCT055 BKN065 79.7 56.8 46% 80 30.11 0.0
20 13:55 W 7 10.00 Mostly Cloudy SCT040 BKN049 BKN055 79.2 57 79.7 61.9 47% 80 30.11 0.0
20 13:35 W 8 10.00 Partly Cloudy SCT040 SCT047 78.3 57.6 49% 79 30.12 0.0
20 13:15 W 9 10.00 Fair CLR 79.2 57.7 48% 80 30.12 0.0
20 12:55 SW 7 10.00 Fair CLR 78.3 58.1 50% 79 30.12 0.0
20 12:35 W 7 10.00 Fair CLR 77.7 58.3 51% 79 30.12 0.0
20 12:15 W 8 10.00 Fair CLR 76.8 58.6 54% 79 30.12 0.0
20 11:55 SW 6 10.00 Fair CLR 76.3 58.6 55% 78 30.13 0.0
20 11:35 SW 7 10.00 Fair CLR 73.6 57.6 57% 30.13 0.0
20 11:15 SW 6 10.00 Fair CLR 74.3 58.3 58% 30.13 0.0
20 10:55 SW 6 10.00 Fair CLR 72.7 56.5 57% 30.14 0.0
20 10:35 SW 3 10.00 Fair CLR 72.9 55.6 55% 30.13 0.0
20 10:15 SW 5 10.00 Fair CLR 70.9 55.9 59% 30.14 0.0
20 09:55 SW 5 10.00 Fair CLR 70.3 56.1 61% 30.14 0.0
20 09:35 SW 5 10.00 Fair CLR 68.2 55.6 64% 30.15 0.0
20 09:15 SW 5 10.00 Fair CLR 67.1 57 70% 30.15 0.0
20 08:55 SW 3 10.00 Fair CLR 65.7 57.2 74% 30.14 0.0
20 08:35 SW 3 10.00 Fair CLR 63.7 58.8 84% 30.14 0.0
20 08:15 Calm 10.00 Fair CLR 62.8 61.5 96% 30.13 0.0
20 07:55 Calm 10.00 Fair CLR 61.3 61.2 61.3 55 99% 30.13 0.0
20 07:35 Calm 10.00 Fair CLR 58.8 58.8 100% 30.12 0.0
20 07:15 Calm 10.00 Fair CLR 58.3 58.3 100% 30.12 0.0
20 06:55 Calm 7.00 Fair CLR 56.3 56.3 100% 30.12 0.0
20 06:35 Calm 5.00 Fog/Mist CLR 55.4 55.4 100% 30.12 0.0
20 06:15 Calm 7.00 Fair CLR 55.6 55.6 100% 30.12 0.0
20 05:55 Calm 10.00 Fair CLR 56.7 56.7 100% 30.12 0.0
20 05:35 Calm 10.00 Fair CLR 56.7 56.7 100% 30.12 0.0
20 05:15 Calm 10.00 Fair CLR 57 57 100% 30.11 0.0
20 04:55 Calm 10.00 Fair CLR 56.8 56.8 100% 30.11 0.0
20 04:35 Calm 10.00 Fair CLR 57.6 57.6 100% 30.11 0.0
20 04:15 SW 3 10.00 Fair CLR 59.2 59.2 100% 30.12 0.0
20 03:55 SW 3 10.00 Fair CLR 59 59 100% 30.12 0.0
20 03:35 Calm 10.00 Fair CLR 59 59 100% 30.12 0.0
20 03:15 Calm 10.00 Fair CLR 57.4 57.4 100% 30.13 0.0
20 02:55 Calm 10.00 Fair CLR 57.6 57.6 100% 30.13 0.0
20 02:35 Calm 10.00 Fair CLR 59.5 59.5 100% 30.13 0.0
20 02:15 Calm 10.00 Fair CLR 61 59.2 94% 30.13 0.0
20 01:55 Calm 10.00 Fair CLR 59 59 76.3 58.1 100% 30.13 0.0
20 01:35 Calm 10.00 Fair CLR 58.3 58.3 100% 30.13 0.0
20 01:15 Calm 10.00 Fair CLR 59.2 59.2 100% 30.13 0.0
20 00:55 SW 3 10.00 Fair CLR 62.1 58.1 87% 30.13 0.0
20 00:35 Calm 10.00 Fair CLR 61.7 61.2 98% 30.13 0.0
20 00:15 Calm 10.00 Fair CLR 60.1 60.1 100% 30.14 0.0
19 23:55 Calm 10.00 Fair CLR 64.4 58.3 81% 30.14 0.0
19 23:35 Calm 10.00 Fair CLR 64.4 59 83% 30.14 0.0
19 23:15 Calm 10.00 Fair CLR 63.5 58.3 83% 30.13 0.0
19 22:55 Calm 10.00 Fair CLR 66.4 57.7 74% 30.14 0.0
19 22:35 W 3 10.00 Fair CLR 66.9 57.7 73% 30.13 0.0
19 22:15 Calm 10.00 Fair CLR 66.6 58.1 74% 30.12 0.0
19 21:55 W 3 10.00 Fair CLR 68.4 57.6 69% 30.12 0.0
19 21:35 SW 6 10.00 Fair CLR 69.1 57.6 67% 30.12 0.0
19 21:15 SW 5 10.00 Fair CLR 71.8 56.1 58% 30.11 0.0
19 20:55 SW 5 10.00 Fair CLR 74.3 55.4 52% 30.11 0.0
19 20:35 Calm 10.00 Fair CLR 75.2 54.9 49% 78 30.11 0.0
19 20:15 Calm 10.00 Partly Cloudy SCT055 75.9 53.8 46% 78 30.11 0.0
19 19:55 W 3 10.00 Fair CLR 76.3 53.1 79.2 74.7 45% 78 30.12 0.0
19 19:35 Calm 10.00 Fair CLR 77.2 52.9 43% 78 30.12 0.0
19 19:15 SW 3 10.00 Fair CLR 77 50.7 40% 78 30.12 0.0
19 18:55 W 3 10.00 Fair CLR 77.2 50.5 39% 78 30.13 0.0
19 18:35 Calm 10.00 Fair CLR 77.2 50.5 39% 78 30.12 0.0
19 18:15 SW 3 10.00 Fair CLR 77.4 49.3 37% 78 30.12 0.0
19 17:55 Calm 10.00 Fair CLR 77.9 48.7 36% 78 30.13 0.0
19 17:35 SW 3 10.00 Fair CLR 77.9 46.9 34% 78 30.13 0.0
19 17:15 Calm 10.00 Fair CLR 78.8 46.4 32% 79 30.14 0.0
19 16:55 W 3 10.00 Fair CLR 79.2 46.9 32% 79 30.14 0.0
19 16:35 SW 3 10.00 Fair CLR 77.4 49.8 38% 78 30.15 0.0
19 16:15 SW 5 10.00 Fair CLR 77.4 48.4 36% 78 30.15 0.0
19 15:55 SW 8 10.00 Fair CLR 77.2 46.9 34% 78 30.15 0.0
19 15:35 W 3 10.00 Fair CLR 77.4 48.6 36% 78 30.15 0.0
19 15:15 Calm 10.00 Fair CLR 75.6 49.1 39% 78 30.16 0.0
19 14:55 SW 3 10.00 Fair CLR 76.6 48.2 37% 78 30.17 0.0
19 14:35 Calm 10.00 Fair CLR 75.6 47.3 37% 78 30.17 0.0
19 14:15 SW 7 10.00 Fair CLR 76.1 49.1 39% 78 30.18 0.0
19 13:55 SW 3 10.00 Fair CLR 75.7 45.1 75.9 59 34% 77 30.19 0.0
Date Time (edt) Wind (mph) Vis. (mi.) Weather Sky Cond. Air Dwpt Max. Min. Relative Humidity Wind Chill (°F) Heat Index (°F) altimeter (in) sea level (mb) 1 hr 3 hr 6 hr
6 hour
Temperature (ºF) Pressure Precipitation (in)